| time (UTC) | temp F | wind direction | speed MPH | gust MPH | rain 1hr in | rain 24hr in | rain mn in | humidity % | barometer mb |
| 20260504183109 | 63 | 127 | 0.0 | 1.0 | 0.38 | 0.44 | 0.44 | 84 | 1004.7 |
| 20260504181558 | 62 | 141 | 0.0 | 2.0 | 0.39 | 0.44 | 0.44 | 84 | 1004.5 |
| 20260504180057 | 61 | 73 | 1.0 | 4.0 | 0.40 | 0.43 | 0.43 | 84 | 1004.0 |
| 20260504174557 | 62 | 51 | 1.0 | 3.0 | 0.22 | 0.23 | 0.23 | 82 | 1005.2 |
| 20260504173056 | 63 | 68 | 0.0 | 1.0 | 0.06 | 0.06 | 0.06 | 80 | 1005.4 |
| 20260504171549 | 64 | 86 | 0.0 | 2.0 | 0.04 | 0.04 | 0.04 | 75 | 1005.4 |
| 20260504081502 | 64 | 119 | 0.0 | 0.0 | 0.00 | 0.00 | 0.00 | 65 | 1008.0 |
| 20260504044540 | 69 | 224 | 0.0 | 5.0 | 0.00 | 0.00 | 0.00 | 50 | 1007.7 |
| 20260504043033 | 69 | 275 | 0.0 | 1.0 | 0.00 | 0.00 | 0.00 | 49 | 1007.9 |
| 20260504041532 | 70 | 311 | 0.0 | 1.0 | 0.00 | 0.00 | 0.00 | 49 | 1008.6 |
| 20260504040032 | 70 | 197 | 0.0 | 7.0 | 0.00 | 0.00 | 0.00 | 48 | 1008.1 |
| 20260504034551 | 70 | 206 | 0.0 | 4.0 | 0.00 | 0.00 | 0.00 | 48 | 1008.8 |
| 20260504033030 | 70 | 21 | 0.0 | 1.0 | 0.00 | 0.00 | 0.00 | 48 | 1009.1 |
| 20260504031529 | 70 | 77 | 0.0 | 0.0 | 0.00 | 0.00 | 0.00 | 48 | 1009.3 |
| 20260504030040 | 70 | 143 | 0.0 | 1.0 | 0.00 | 0.00 | 0.00 | 48 | 1009.1 |
| 20260504024528 | 71 | 319 | 0.0 | 0.0 | 0.00 | 0.00 | 0.00 | 48 | 1009.1 |
| 20260504023027 | 72 | 319 | 0.0 | 1.0 | 0.00 | 0.00 | 0.00 | 45 | 1009.2 |
| 20260504021526 | 73 | 287 | 0.0 | 1.0 | 0.00 | 0.00 | 0.00 | 44 | 1009.1 |
| 20260504020029 | 73 | 39 | 0.0 | 2.0 | 0.00 | 0.00 | 0.00 | 42 | 1008.8 |
| 20260504014536 | 74 | 139 | 0.0 | 4.0 | 0.00 | 0.00 | 0.00 | 41 | 1008.7 |
| 20260504013025 | 74 | 31 | 0.0 | 3.0 | 0.00 | 0.00 | 0.00 | 41 | 1008.5 |
| 20260504011524 | 74 | 122 | 0.0 | 4.0 | 0.00 | 0.00 | 0.00 | 40 | 1008.5 |
| 20260504010028 | 74 | 43 | 0.0 | 3.0 | 0.00 | 0.00 | 0.00 | 39 | 1008.4 |
| 20260504004524 | 75 | 139 | 0.0 | 3.0 | 0.00 | 0.00 | 0.00 | 39 | 1008.4 |
| 20260504003030 | 75 | 135 | 0.0 | 6.0 | 0.00 | 0.00 | 0.00 | 38 | 1008.3 |
| 20260504001522 | 76 | 255 | 0.0 | 2.0 | 0.00 | 0.00 | 0.00 | 36 | 1008.4 |
| 20260504000020 | 76 | 293 | 0.0 | 8.0 | 0.00 | 0.00 | 0.00 | 36 | 1008.6 |
| 20260503234532 | 77 | 214 | 0.0 | 4.0 | 0.00 | 0.00 | 0.00 | 35 | 1008.7 |
| 20260503233018 | 78 | 254 | 0.0 | 4.0 | 0.00 | 0.00 | 0.00 | 33 | 1008.8 |
| 20260503231517 | 78 | 1 | 0.0 | 3.0 | 0.00 | 0.00 | 0.00 | 31 | 1008.9 |
| 20260503230016 | 78 | 105 | 0.0 | 5.0 | 0.00 | 0.00 | 0.00 | 32 | 1008.9 |
| 20260503224514 | 79 | 165 | 0.0 | 6.0 | 0.00 | 0.00 | 0.00 | 31 | 1009.1 |
| 20260503223014 | 79 | 67 | 1.0 | 6.0 | 0.00 | 0.00 | 0.00 | 30 | 1009.1 |
| 20260503221512 | 79 | 283 | 0.0 | 9.0 | 0.00 | 0.00 | 0.00 | 30 | 1009.2 |
| 20260503220010 | 79 | 203 | 0.0 | 9.0 | 0.00 | 0.00 | 0.00 | 28 | 1009.4 |
| 20260503214513 | 79 | 65 | 1.0 | 9.0 | 0.00 | 0.00 | 0.00 | 29 | 1009.7 |
| 20260503213008 | 79 | 284 | 0.0 | 6.0 | 0.00 | 0.00 | 0.00 | 29 | 1009.8 |
| 20260503211507 | 79 | 286 | 1.0 | 7.0 | 0.00 | 0.00 | 0.00 | 30 | 1010.0 |
| 20260503210007 | 79 | 128 | 0.0 | 9.0 | 0.00 | 0.00 | 0.00 | 31 | 1010.0 |
| 20260503204503 | 79 | 41 | 1.0 | 7.0 | 0.00 | 0.00 | 0.00 | 30 | 1010.2 |
| 20260503203001 | 78 | 287 | 2.0 | 7.0 | 0.00 | 0.00 | 0.00 | 30 | 1010.5 |
| 20260503201604 | 77 | 291 | 1.0 | 7.0 | 0.00 | 0.00 | 0.00 | 34 | 1010.9 |
| 20260503200058 | 77 | 284 | 1.0 | 8.0 | 0.00 | 0.00 | 0.00 | 32 | 1011.3 |
| 20260503194550 | 76 | 165 | 2.0 | 7.0 | 0.00 | 0.00 | 0.00 | 32 | 1011.7 |
| 20260503193054 | 76 | 36 | 2.0 | 12.0 | 0.00 | 0.00 | 0.00 | 33 | 1012.0 |
| 20260503191546 | 76 | 259 | 1.0 | 16.0 | 0.00 | 0.00 | 0.00 | 34 | 1012.4 |
| 20260503190043 | 75 | 298 | 1.0 | 9.0 | 0.00 | 0.00 | 0.00 | 33 | 1012.9 |
| 20260503184551 | 75 | 82 | 2.0 | 7.0 | 0.00 | 0.00 | 0.00 | 32 | 1013.1 |